Regional Weather Roundup
Issued by NWS

Home | Current Version | Previous Version | Text Only | Print | Product List | Glossary On
Versions: 1 2 3 4 5 6 7 8 9 10 11 12 13 14 15 16 17 18 19 20 21 22 23 24 25 26 27 28 29 30 31 32 33 34 35 36 37 38 39 40 41 42 43 44 45 46 47 48 49 50
000
ASUS43 KLSX 300759
RWRMO

WEATHER SUMMARY FOR MISSOURI
NATIONAL WEATHER SERVICE SPRINGFIELD MO
300 AM CDT TUE SEP 30 2014

NOTE: "FAIR" INDICATES FEW OR NO CLOUDS BELOW 12,000 FEET WITH NO
       SIGNIFICANT WEATHER AND/OR OBSTRUCTIONS TO VISIBILITY.
       CURRENT SKY AND/OR WEATHER CONDITIONS ARE NOT AVAILABLE FOR
       CHILLICOTHE AND FARMINGTON.

MOZ001>031-035>038-043-044-053-054-300900-
...NORTHERN AND WESTERN MISSOURI...

CITY           SKY/WX    TMP DP  RH WIND       PRES   REMARKS
KANSAS CTY INT PTCLDY    62  57  83 SE7       29.96F
KANSAS C DTWN  PTCLDY    66  60  81 NE3       29.95F
LEE`S SUMMIT   PTCLDY    65  58  78 SE3       29.97F
ST JOSEPH      PTCLDY    56  54  93 CALM      29.96S
CHILLICOTHE      N/A     59  56  89 CALM      29.98S
KIRKSVILLE     CLEAR     56  54  93 CALM      29.98S FOG

$$
MOZ066>068-077>081-088>096-101>105-300900-
...SOUTHWEST MISSOURI...

CITY           SKY/WX    TMP DP  RH WIND       PRES   REMARKS
SPRINGFIELD    CLEAR     61  56  83 CALM      29.98S
JOPLIN         CLEAR     63  58  83 S3        29.97S

$$
MOZ032>034-039>042-045>050-055>058-069>072-300900-
...CENTRAL MISSOURI...

CITY           SKY/WX    TMP DP  RH WIND       PRES   REMARKS
COLUMBIA       CLEAR     61  56  83 S6        29.98S
JEFFERSON CITY CLEAR     58  56  93 CALM      29.97S
ROLLA          CLEAR     59  52  77 S6        29.97S
SEDALIA        CLEAR     60  57  89 SE3       29.98S
OSAGE BEACH    CLEAR     57  54  88 CALM      29.97S

$$
MOZ051-052-059>065-300900-
...EAST CENTRAL MISSOURI...

CITY           SKY/WX    TMP DP  RH WIND       PRES   REMARKS
ST LOUIS INTL  CLEAR     65  59  81 CALM      29.96F
SPIRIT OF STL  CLEAR     57  55  93 CALM      29.95F FOG
ST CHARLES     CLOUDY    57  56  96 CALM      29.95F FOG

$$
MOZ072>076-082>087-097>100-106>115-300900-
...SOUTH CENTRAL AND SOUTHEAST MISSOURI...

CITY           SKY/WX    TMP DP  RH WIND       PRES   REMARKS
CAPE GIRARDEAU FOG       54  53  97 W3        29.95S VSB 1/4
FARMINGTON     CLEAR     55  54  94 CALM      30.00S
POPLAR BLUFF   CLEAR     59  55  87 CALM      29.94F
WEST PLAINS    CLEAR     58  55  90 CALM      30.00S

$$



USA.gov is the U.S. government's official web portal to all federal, state and local government web resources and services.